[[{"header":{"parameterUnit":"m.s-1","parameterCategory":2,"la1":30.2991,"la2":30.254,"lo1":-89.0895,"lo2":-89.0444,"dy":0.0017,"dx":0.0017,"nx":28,"ny":28,"refTime":"2024-10-07T09:00:00:Z","depth":"0","parameterNumber":2,"parameterNumberName":"U-component_of_CURRENTS"},"data":[0,0,0,0,0,0,0,0,0,0,0,0,0,0,0,0,0,0,0,0,0,0,0,0,0,0,0,0,0,0,0,0,0,0,0,0,0,0,0,0,0,0,0,0,0,0,0,0,0,0,0,0,0,0,0,0,0,0,-0.226,-0.226,0,-0.2264,-0.2263,-0.2263,-0.2195,-0.2194,-0.2192,-0.2191,-0.2077,-0.2075,-0.2074,0,0,0,0,0,0,0,0,0,0,0,0,0,-0.2191,-0.2193,-0.226,-0.226,-0.2261,-0.2264,-0.2263,-0.2263,-0.2196,-0.2194,-0.2192,-0.219,-0.2077,-0.2076,-0.2074,0,0,0,0,0,0,0,0,0,0,0,0,0,-0.2208,-0.2193,-0.226,-0.223,-0.2227,-0.2264,-0.2263,-0.2263,-0.2196,-0.2194,-0.2191,-0.2189,-0.2078,-0.2076,-0.2073,-0.2104,0,0,-0.2066,-0.2065,0,0,0,0,0,0,0,0,-0.2207,-0.221,-0.2234,-0.2232,-0.2229,-0.223,-0.2198,-0.2205,-0.2197,-0.2204,-0.2191,-0.2188,-0.2121,-0.2115,-0.2118,-0.2099,-0.2094,-0.2066,-0.2064,-0.2063,-0.2063,0,0,0,0,0,0,0,-0.2206,-0.2209,-0.2258,-0.2234,-0.2232,-0.2215,-0.2215,-0.2199,-0.2171,-0.2204,-0.2199,-0.2206,-0.2118,-0.212,-0.2114,-0.2093,-0.2066,-0.2064,-0.2062,-0.2061,-0.2091,-0.2093,0,0,0,0,0,0,-0.2215,-0.2209,-0.2258,-0.2258,-0.2216,-0.2219,-0.2218,-0.2229,-0.2173,-0.2165,-0.2208,-0.2203,-0.2126,-0.2117,-0.211,-0.2125,-0.2063,-0.2061,-0.206,-0.2089,-0.2091,-0.2094,0,0,0,0,0,0,-0.2214,-0.222,-0.2258,-0.2235,-0.224,-0.2223,-0.2236,-0.223,-0.2224,-0.2179,-0.2166,-0.2206,-0.2123,-0.2113,-0.2107,-0.212,-0.206,-0.2058,-0.2086,-0.2089,-0.2093,-0.2167,0,0,0,0,0,0,-0.2212,-0.2219,-0.2228,-0.2237,-0.2241,-0.2282,-0.2238,-0.2232,-0.2234,-0.2226,-0.2173,-0.2161,-0.2121,-0.2111,-0.2105,-0.2116,-0.2056,-0.2083,-0.2087,-0.2091,-0.2162,-0.2173,-0.2182,0,0,0,0,0,-0.221,-0.2232,-0.2228,-0.2234,-0.2255,-0.2284,-0.2285,-0.2262,-0.2236,-0.2244,-0.2215,-0.2162,-0.2133,-0.2112,-0.2103,-0.2114,-0.2081,-0.2086,-0.2091,-0.2157,-0.2171,-0.2182,0,0,0,0,0,0,-0.2204,-0.2228,-0.2224,-0.2251,-0.2268,-0.2273,-0.2279,-0.227,-0.2257,-0.2242,-0.2191,-0.2178,-0.2177,-0.215,-0.2128,-0.214,-0.2098,-0.2102,-0.2152,-0.2164,-0.2174,-0.2178,-0.2054,0,0,0,0,0,-0.2212,-0.223,-0.2254,-0.2273,-0.2284,-0.2284,-0.2291,-0.2283,-0.2277,-0.2267,-0.2235,-0.2208,-0.2197,-0.2182,-0.2166,-0.2175,-0.2143,-0.218,-0.219,-0.2198,-0.2201,-0.2181,-0.2188,-0.211,-0.211,-0.211,0,0,-0.2211,-0.2229,-0.2237,-0.2273,-0.2278,-0.2307,-0.2281,-0.2299,-0.2316,-0.2258,-0.2261,-0.224,-0.221,-0.2218,-0.2215,-0.2191,-0.2207,-0.2205,-0.2212,-0.2209,-0.2187,-0.2194,-0.22,-0.2114,-0.2113,-0.2112,0,0,-0.2223,-0.2242,-0.2258,-0.2285,-0.231,-0.2321,-0.2331,-0.2344,-0.234,-0.2357,-0.2321,-0.2319,-0.2294,-0.2284,-0.2274,-0.2336,-0.2262,-0.2325,-0.237,-0.2352,-0.2358,-0.2362,-0.2334,-0.2335,-0.2327,-0.2327,-0.2327,0,-0.2215,-0.2248,-0.2268,-0.23,-0.2322,-0.2331,-0.236,-0.2376,-0.2384,-0.2389,-0.2363,-0.2353,-0.2329,-0.2343,-0.2366,-0.2356,-0.2324,-0.2321,-0.2362,-0.2366,-0.2369,-0.2339,-0.2339,-0.2331,-0.2331,-0.233,-0.233,0,-0.2241,-0.2272,-0.2289,-0.233,-0.2363,-0.2391,-0.2426,-0.2447,-0.2444,-0.2451,-0.2463,-0.2444,-0.2432,-0.2434,-0.2415,-0.2434,-0.2398,-0.2376,-0.2324,-0.2381,-0.2346,-0.2345,-0.2337,-0.2336,-0.2334,-0.2333,0,0,-0.2186,-0.2286,-0.2286,-0.232,-0.2381,-0.241,-0.2459,-0.2501,-0.2514,-0.2528,-0.2534,-0.255,-0.253,-0.2521,-0.2499,-0.2491,-0.2495,-0.2445,-0.2442,-0.2405,-0.2439,-0.2412,-0.2407,-0.2467,-0.2467,-0.2468,-0.2406,0,-0.2185,-0.2259,-0.2308,-0.237,-0.2407,-0.2456,-0.2499,-0.2542,-0.2554,-0.2565,-0.2569,-0.2561,-0.2566,-0.2545,-0.2552,-0.2498,-0.2494,-0.2513,-0.2401,-0.2398,-0.2356,-0.2406,-0.2308,-0.2245,-0.2404,-0.2404,-0.2404,0,-0.2172,-0.2229,-0.2298,-0.2395,-0.2413,-0.2455,-0.2516,-0.2556,-0.2593,-0.2596,-0.261,-0.2592,-0.2603,-0.258,-0.255,-0.2554,-0.2513,-0.2475,-0.2471,-0.2417,-0.2369,-0.2215,-0.2236,-0.2214,-0.2401,-0.2401,-0.2401,0,-0.211,-0.2213,-0.2271,-0.2306,-0.2417,-0.2451,-0.2501,-0.2555,-0.2569,-0.2601,-0.2585,-0.2611,-0.2582,-0.2565,-0.2524,-0.2521,-0.2465,-0.2445,-0.2389,-0.2386,-0.2267,-0.2253,-0.224,-0.2426,-0.2426,-0.2426,-0.2426,0,-0.2083,-0.212,-0.225,-0.2279,-0.2335,-0.2423,-0.2456,-0.251,-0.2542,-0.2537,-0.2585,-0.2565,-0.257,-0.2543,-0.252,-0.2458,-0.2468,-0.2405,-0.2374,-0.2293,-0.2283,-0.2229,-0.2242,-0.2423,-0.2424,-0.2424,-0.2425,0,-0.2001,-0.2086,-0.2154,-0.2277,-0.2306,-0.2345,-0.2419,-0.2426,-0.248,-0.2466,-0.2467,-0.2506,-0.2488,-0.2492,-0.2446,-0.2426,-0.2338,-0.2357,-0.2265,-0.2226,-0.2158,-0.2178,-0.2126,-0.2065,-0.2278,-0.2277,-0.2276,0,-0.1974,-0.2002,-0.2127,-0.2151,-0.2203,-0.2264,-0.2283,-0.2372,-0.2369,-0.2418,-0.2388,-0.24,-0.2396,-0.2358,-0.2332,-0.2297,-0.2284,-0.2175,-0.2171,-0.2153,-0.2152,-0.2163,-0.2116,-0.2036,-0.2033,-0.2031,-0.2029,0,-0.1903,-0.1946,-0.1999,-0.2055,-0.209,-0.2124,-0.2162,-0.2155,-0.2233,-0.2243,-0.2254,-0.2269,-0.227,-0.2221,-0.2201,-0.216,-0.2121,-0.2129,-0.2122,-0.1985,-0.198,-0.1904,-0.2081,-0.201,-0.2012,-0.2013,-0.2014,-0.2015,-0.1828,-0.1843,-0.1904,-0.1946,-0.1973,-0.1963,-0.1935,-0.198,-0.1982,-0.1985,-0.2084,-0.2101,-0.2103,-0.2079,-0.2044,-0.1944,-0.1991,-0.1877,-0.1907,-0.1923,-0.1862,-0.201,-0.1906,-0.1907,-0.1908,-0.1909,-0.191,0,-0.1736,-0.1753,-0.1785,-0.1813,-0.1776,-0.1838,-0.1823,-0.1772,-0.1742,-0.1828,-0.1858,-0.1921,-0.187,-0.1881,-0.1817,-0.1743,-0.1689,-0.1697,-0.1676,-0.1639,-0.1759,-0.1747,-0.159,-0.159,-0.159,-0.159,-0.159,-0.159,-0.1685,-0.1672,-0.1696,-0.1612,-0.1607,-0.1507,-0.1468,-0.144,-0.1467,-0.1509,-0.1601,-0.1716,-0.1742,-0.1838,-0.1728,-0.1639,-0.1588,-0.1543,-0.1571,-0.1655,-0.1674,-0.1692,-0.1684,-0.1515,-0.1515,-0.1371,-0.137,-0.137]},{"header":{"parameterUnit":"m.s-1","parameterCategory":2,"la1":30.2991,"la2":30.254,"lo1":-89.0895,"lo2":-89.0444,"dy":0.0017,"dx":0.0017,"nx":28,"ny":28,"refTime":"2024-10-07T09:00:00:Z","depth":"0","parameterNumber":3,"parameterNumberName":"V-component_of_CURRENTS"},"data":[0,0,0,0,0,0,0,0,0,0,0,0,0,0,0,0,0,0,0,0,0,0,0,0,0,0,0,0,0,0,0,0,0,0,0,0,0,0,0,0,0,0,0,0,0,0,0,0,0,0,0,0,0,0,0,0,0,0,-0.0377,-0.0376,0,-0.0284,-0.0283,-0.0282,-0.0217,-0.0217,-0.0217,-0.0216,-0.0114,-0.0112,-0.011,0,0,0,0,0,0,0,0,0,0,0,0,0,-0.0423,-0.0422,-0.0377,-0.0376,-0.0375,-0.0284,-0.0283,-0.0281,-0.0217,-0.0217,-0.0217,-0.0216,-0.0115,-0.0112,-0.0109,0,0,0,0,0,0,0,0,0,0,0,0,0,-0.0371,-0.0422,-0.0377,-0.0334,-0.033,-0.0285,-0.0283,-0.0281,-0.0217,-0.0217,-0.0217,-0.0216,-0.0116,-0.0113,-0.0109,-0.0092,0,0,-0.0097,-0.0096,0,0,0,0,0,0,0,0,-0.0374,-0.0369,-0.0341,-0.0337,-0.0332,-0.0264,-0.0262,-0.0218,-0.0217,-0.0257,-0.0216,-0.0216,-0.0166,-0.0158,-0.0137,-0.0088,-0.0083,-0.0097,-0.0095,-0.0093,-0.0092,0,0,0,0,0,0,0,-0.0378,-0.0372,-0.0337,-0.0341,-0.0335,-0.0294,-0.0287,-0.0252,-0.0212,-0.0253,-0.0249,-0.0244,-0.0163,-0.0141,-0.0134,-0.0082,-0.0097,-0.0094,-0.0092,-0.009,0.0008,0.0008,0,0,0,0,0,0,-0.04,-0.0376,-0.034,-0.0335,-0.0356,-0.0294,-0.0286,-0.0284,-0.0212,-0.0202,-0.0244,-0.0241,-0.0148,-0.0139,-0.0131,-0.0104,-0.0093,-0.009,-0.0088,0.0007,0.0008,0.0008,0,0,0,0,0,0,-0.0401,-0.0397,-0.0344,-0.0355,-0.0346,-0.0295,-0.0293,-0.0282,-0.0263,-0.0206,-0.0195,-0.0235,-0.0147,-0.0136,-0.0096,-0.01,-0.0088,-0.0085,0.0007,0.0007,0.0008,-0.0053,0,0,0,0,0,0,-0.0403,-0.0399,-0.0404,-0.0357,-0.0346,-0.0327,-0.0293,-0.0281,-0.0261,-0.0256,-0.0195,-0.0185,-0.0146,-0.0102,-0.0092,-0.0094,-0.0082,0.0006,0.0007,0.0008,-0.0051,-0.0054,-0.0057,0,0,0,0,0,-0.0405,-0.0417,-0.0405,-0.04,-0.0356,-0.0328,-0.0318,-0.0278,-0.0261,-0.0257,-0.0208,-0.0187,-0.0091,-0.0098,-0.0087,-0.0089,0.0006,0.0007,0.0008,-0.005,-0.0054,-0.0057,0,0,0,0,0,0,-0.0439,-0.041,-0.0396,-0.0399,-0.0371,-0.0318,-0.0311,-0.0285,-0.0242,-0.0237,-0.0181,-0.0167,-0.0134,-0.0101,-0.0111,-0.0057,-0.0039,-0.0037,-0.0087,-0.009,-0.0093,-0.0106,-0.0078,0,0,0,0,0,-0.0451,-0.0453,-0.0416,-0.0419,-0.0408,-0.0361,-0.0345,-0.0319,-0.0277,-0.0257,-0.0213,-0.0164,-0.0121,-0.0099,-0.0057,-0.003,0.0006,-0.0023,-0.0026,-0.0029,-0.0031,0.0025,0.0027,0.001,0.001,0.001,0,0,-0.0465,-0.045,-0.045,-0.0426,-0.0399,-0.0389,-0.035,-0.0332,-0.0316,-0.0254,-0.022,-0.0174,-0.0116,-0.0081,-0.0063,-0.0055,-0.0005,-0.0028,-0.0031,-0.0031,0.0026,0.0028,0.0029,0.0011,0.0011,0.0011,0,0,-0.0496,-0.0481,-0.0493,-0.0475,-0.0447,-0.0415,-0.0415,-0.0366,-0.0338,-0.0303,-0.0251,-0.0206,-0.0146,-0.01,-0.007,-0.0064,-0.0023,-0.0055,-0.0081,-0.0027,-0.0026,-0.0024,0.0018,0.0024,-0.0057,-0.0057,-0.0057,0,-0.0513,-0.0525,-0.0491,-0.0496,-0.0487,-0.0432,-0.0439,-0.04,-0.0343,-0.0319,-0.0302,-0.0198,-0.0153,-0.01,-0.0096,-0.0072,-0.0039,-0.0076,-0.0032,-0.003,-0.0027,0.0016,0.0023,-0.006,-0.0059,-0.0059,-0.0059,0,-0.055,-0.0559,-0.0564,-0.0552,-0.0535,-0.0534,-0.0483,-0.0456,-0.0416,-0.0372,-0.0314,-0.0243,-0.0181,-0.0161,-0.0127,-0.0083,-0.0066,-0.0045,-0.0029,-0.0029,0.0016,0.0025,-0.0064,-0.0063,-0.0062,-0.0061,0,0,-0.0581,-0.0591,-0.0591,-0.0605,-0.0568,-0.0561,-0.0532,-0.0489,-0.0464,-0.0402,-0.0364,-0.0287,-0.0243,-0.0205,-0.0152,-0.0106,-0.0059,-0.0074,-0.007,-0.0043,0.0052,0.0096,0.0111,-0.0032,-0.0031,-0.0029,0.0073,0,-0.0618,-0.0663,-0.0642,-0.0665,-0.0683,-0.0627,-0.0604,-0.0555,-0.0494,-0.044,-0.0357,-0.0302,-0.026,-0.023,-0.0176,-0.0082,-0.0037,-0.0089,0.0058,0.0062,0.0093,0.0122,0.0157,0.0254,0.0082,0.0083,0.0084,0,-0.0655,-0.0684,-0.073,-0.0736,-0.0734,-0.0731,-0.0684,-0.0654,-0.0558,-0.0508,-0.0432,-0.0359,-0.0274,-0.0242,-0.0091,-0.0127,-0.0047,0.0021,0.0028,0.0097,0.0123,0.023,0.0277,0.0419,0.0098,0.0097,0.0096,0,-0.071,-0.0738,-0.0784,-0.0787,-0.078,-0.0779,-0.0761,-0.0681,-0.0646,-0.0549,-0.0507,-0.0393,-0.033,-0.0216,-0.007,-0.008,0.0097,0.0104,0.0217,0.022,0.0295,0.0303,0.049,0.0203,0.0203,0.0202,0.0202,0,-0.0761,-0.0793,-0.0819,-0.0847,-0.0883,-0.0845,-0.0842,-0.0796,-0.0713,-0.0667,-0.0552,-0.0491,-0.032,-0.0194,-0.0075,0.0107,0.0097,0.0222,0.0257,0.0274,0.0279,0.0442,0.0487,0.0206,0.0205,0.0205,0.0204,0,-0.0816,-0.0831,-0.089,-0.0912,-0.0918,-0.0944,-0.0916,-0.0896,-0.081,-0.0743,-0.0716,-0.0555,-0.0385,-0.0206,-0.0005,0.0106,0.0363,0.0329,0.0333,0.0367,0.0597,0.0636,0.085,0.0927,0.047,0.0472,0.0474,0,-0.0852,-0.0893,-0.0956,-0.0992,-0.1007,-0.103,-0.1031,-0.096,-0.0922,-0.0781,-0.075,-0.0574,-0.0434,-0.0116,0.0117,0.0354,0.0451,0.0513,0.0504,0.063,0.07,0.0728,0.0779,0.0576,0.0578,0.058,0.0582,0,-0.092,-0.0944,-0.0996,-0.1081,-0.1112,-0.1128,-0.112,-0.1103,-0.0992,-0.0922,-0.0797,-0.0678,-0.0346,-0.005,0.0272,0.0412,0.0625,0.0557,0.0701,0.0813,0.0846,0.093,0.0475,0.0598,0.0596,0.0595,0.0594,0.0594,-0.0964,-0.1024,-0.1095,-0.1165,-0.1198,-0.1206,-0.1205,-0.1165,-0.1108,-0.0968,-0.085,-0.0637,-0.019,0.0276,0.0443,0.0818,0.0773,0.0922,0.0962,0.0982,0.1057,0.0632,0.0785,0.0784,0.0784,0.0783,0.0783,0,-0.102,-0.1084,-0.1167,-0.1236,-0.1265,-0.1264,-0.1241,-0.1207,-0.1143,-0.0994,-0.0853,-0.0361,0.0078,0.0488,0.1017,0.1214,0.125,0.1308,0.1364,0.1398,0.1046,0.1052,0.1255,0.1254,0.1254,0.1254,0.1254,0.1254,-0.1052,-0.1151,-0.1202,-0.1275,-0.1301,-0.13,-0.1279,-0.1227,-0.1117,-0.0867,-0.0595,-0.0378,0.0231,0.1075,0.1556,0.1597,0.1748,0.174,0.1816,0.1577,0.1544,0.1512,0.1532,0.1832,0.1832,0.2163,0.2166,0.2169]}],[{"header":{"parameterUnit":"m.s-1","parameterCategory":2,"la1":30.2991,"la2":30.254,"lo1":-89.0895,"lo2":-89.0444,"dy":0.0017,"dx":0.0017,"nx":28,"ny":28,"refTime":"2024-10-07T09:00:00:Z","depth":"2","parameterNumber":2,"parameterNumberName":"U-component_of_CURRENTS"},"data":[0,0,0,0,0,0,0,0,0,0,0,0,0,0,0,0,0,0,0,0,0,0,0,0,0,0,0,0,0,0,0,0,0,0,0,0,0,0,0,0,0,0,0,0,0,0,0,0,0,0,0,0,0,0,0,0,0,0,-0.1954,-0.1954,0,-0.1978,-0.1978,-0.1979,-0.196,-0.1959,-0.1958,-0.1957,-0.1887,-0.1886,-0.1885,0,0,0,0,0,0,0,0,0,0,0,0,0,-0.187,-0.1871,-0.1954,-0.1954,-0.1954,-0.1978,-0.1978,-0.1979,-0.196,-0.1959,-0.1958,-0.1957,-0.1887,-0.1886,-0.1885,0,0,0,0,0,0,0,0,0,0,0,0,0,-0.1902,-0.1872,-0.1954,-0.1947,-0.1947,-0.1978,-0.1978,-0.1979,-0.196,-0.1959,-0.1957,-0.1956,-0.1888,-0.1886,-0.1884,-0.19,0,0,-0.188,-0.1879,0,0,0,0,0,0,0,0,-0.19,-0.1905,-0.1948,-0.1948,-0.1948,-0.1964,-0.1923,-0.1948,-0.196,-0.1956,-0.1957,-0.1956,-0.1905,-0.1902,-0.1911,-0.1897,-0.1894,-0.1879,-0.1878,-0.1878,-0.1877,0,0,0,0,0,0,0,-0.1898,-0.1904,-0.1964,-0.1949,-0.1948,-0.1936,-0.1939,-0.1928,-0.1936,-0.1956,-0.1954,-0.1957,-0.1904,-0.1913,-0.1909,-0.1893,-0.1879,-0.1878,-0.1877,-0.1876,-0.1926,-0.1928,0,0,0,0,0,0,-0.1897,-0.1902,-0.1963,-0.1965,-0.192,-0.1939,-0.1942,-0.196,-0.1938,-0.1934,-0.1958,-0.1956,-0.1916,-0.1911,-0.1906,-0.1938,-0.1878,-0.1876,-0.1875,-0.1924,-0.1927,-0.1929,0,0,0,0,0,0,-0.1895,-0.1903,-0.1962,-0.1932,-0.1939,-0.1941,-0.1962,-0.1962,-0.1968,-0.194,-0.1934,-0.1964,-0.1915,-0.1908,-0.192,-0.1934,-0.1875,-0.1874,-0.1921,-0.1925,-0.1928,-0.1992,0,0,0,0,0,0,-0.1893,-0.1903,-0.1921,-0.1933,-0.194,-0.1989,-0.1963,-0.1963,-0.1972,-0.1969,-0.1944,-0.1936,-0.1913,-0.1923,-0.1919,-0.1931,-0.1873,-0.1918,-0.1923,-0.1927,-0.1987,-0.1997,-0.2006,0,0,0,0,0,-0.189,-0.1915,-0.1922,-0.193,-0.1965,-0.1991,-0.1994,-0.1991,-0.1973,-0.1989,-0.1982,-0.1937,-0.1947,-0.1924,-0.1918,-0.193,-0.1916,-0.1922,-0.1927,-0.1983,-0.1995,-0.2006,0,0,0,0,0,0,-0.1889,-0.1916,-0.1924,-0.1957,-0.1978,-0.1987,-0.1998,-0.1996,-0.2005,-0.2,-0.1966,-0.196,-0.1973,-0.1956,-0.1931,-0.1963,-0.1924,-0.1928,-0.1969,-0.198,-0.199,-0.1988,-0.1871,0,0,0,0,0,-0.19,-0.1924,-0.1949,-0.1976,-0.1987,-0.1995,-0.2005,-0.2008,-0.2014,-0.2016,-0.2003,-0.1994,-0.1993,-0.1989,-0.1986,-0.2003,-0.1974,-0.201,-0.202,-0.2028,-0.2027,-0.2007,-0.2013,-0.1946,-0.1946,-0.1946,0,0,-0.1903,-0.1923,-0.1936,-0.1977,-0.1988,-0.2016,-0.1997,-0.202,-0.2045,-0.2006,-0.2033,-0.2023,-0.2007,-0.203,-0.2034,-0.2013,-0.2037,-0.2034,-0.2041,-0.2035,-0.2012,-0.2018,-0.2024,-0.195,-0.1949,-0.1949,0,0,-0.1914,-0.1945,-0.1964,-0.1989,-0.2018,-0.2034,-0.2042,-0.2064,-0.2076,-0.2107,-0.2087,-0.2099,-0.2092,-0.2096,-0.2091,-0.2155,-0.2087,-0.2147,-0.2188,-0.2169,-0.2174,-0.2177,-0.2161,-0.2163,-0.2151,-0.2152,-0.2152,0,-0.1913,-0.1951,-0.1973,-0.2001,-0.2025,-0.2042,-0.2072,-0.2096,-0.2122,-0.2134,-0.2122,-0.2135,-0.2127,-0.2148,-0.2177,-0.2173,-0.2145,-0.214,-0.2178,-0.2181,-0.2183,-0.2166,-0.2167,-0.2155,-0.2155,-0.2155,-0.2154,0,-0.1933,-0.1973,-0.1987,-0.2033,-0.2066,-0.2096,-0.2135,-0.2166,-0.2178,-0.2193,-0.222,-0.2223,-0.2225,-0.2232,-0.2222,-0.2242,-0.2212,-0.2188,-0.214,-0.2193,-0.2173,-0.2172,-0.2161,-0.2159,-0.2158,-0.2157,0,0,-0.1891,-0.1983,-0.1986,-0.202,-0.2087,-0.2112,-0.2169,-0.2217,-0.2233,-0.2268,-0.2283,-0.2315,-0.2306,-0.2304,-0.2294,-0.2289,-0.2297,-0.2248,-0.2246,-0.2218,-0.2247,-0.2209,-0.2204,-0.2264,-0.2264,-0.2264,-0.223,0,-0.1893,-0.1959,-0.2006,-0.2068,-0.2106,-0.2158,-0.2203,-0.2252,-0.2279,-0.2302,-0.232,-0.2328,-0.2336,-0.2328,-0.2334,-0.2295,-0.2296,-0.2308,-0.2214,-0.2211,-0.2157,-0.2203,-0.2034,-0.1987,-0.2229,-0.2229,-0.2229,0,-0.1878,-0.1936,-0.2004,-0.2094,-0.2111,-0.2151,-0.2218,-0.2261,-0.2309,-0.2325,-0.235,-0.2348,-0.2371,-0.2353,-0.2336,-0.2334,-0.2305,-0.2277,-0.2274,-0.2211,-0.2171,-0.1973,-0.1976,-0.2227,-0.2227,-0.2227,-0.2227,0,-0.1825,-0.1921,-0.198,-0.2013,-0.212,-0.2153,-0.2199,-0.226,-0.2284,-0.2329,-0.233,-0.2361,-0.2353,-0.2336,-0.2315,-0.231,-0.227,-0.2252,-0.2197,-0.2194,-0.2019,-0.2001,-0.2237,-0.2237,-0.2237,-0.2237,-0.2237,0,-0.1801,-0.184,-0.196,-0.1993,-0.2043,-0.2126,-0.2161,-0.2211,-0.226,-0.2271,-0.2328,-0.2328,-0.2341,-0.2328,-0.231,-0.2257,-0.2271,-0.221,-0.2184,-0.2041,-0.2026,-0.2205,-0.2202,-0.2235,-0.2236,-0.2236,-0.2236,0,-0.1726,-0.1809,-0.1877,-0.1995,-0.2021,-0.2054,-0.2126,-0.214,-0.2205,-0.2217,-0.2227,-0.2286,-0.2278,-0.229,-0.2255,-0.2234,-0.2195,-0.2172,-0.2015,-0.1972,-0.2132,-0.2133,-0.2101,-0.2099,-0.2098,-0.2097,-0.2096,0,-0.1702,-0.1732,-0.1853,-0.1876,-0.1926,-0.1981,-0.2002,-0.2092,-0.2107,-0.2181,-0.2171,-0.2199,-0.22,-0.2169,-0.2133,-0.2098,-0.2154,-0.1919,-0.1894,-0.2141,-0.2119,-0.2122,-0.2125,-0.1689,-0.1684,-0.1681,-0.1678,0,-0.1645,-0.1685,-0.1738,-0.1792,-0.1827,-0.1858,-0.1903,-0.1912,-0.2004,-0.2027,-0.2058,-0.2073,-0.2074,-0.1975,-0.1949,-0.1902,-0.1916,-0.1848,-0.2119,-0.1765,-0.1753,-0.1732,-0.1747,-0.1648,-0.1651,-0.1653,-0.1655,-0.1656,-0.1587,-0.1595,-0.1656,-0.1687,-0.1721,-0.1725,-0.1705,-0.176,-0.1777,-0.1797,-0.1891,-0.1869,-0.187,-0.1759,-0.1682,-0.1623,-0.1755,-0.1662,-0.1672,-0.1685,-0.1659,-0.1647,-0.1517,-0.1519,-0.1521,-0.1522,-0.1524,0,-0.1515,-0.1517,-0.1541,-0.1572,-0.1549,-0.1609,-0.1618,-0.158,-0.1564,-0.162,-0.1641,-0.1509,-0.1457,-0.1469,-0.134,-0.1323,-0.1293,-0.1256,-0.1211,-0.1243,-0.127,-0.1223,-0.0964,-0.0963,-0.0961,-0.096,0,0,-0.1475,-0.1456,-0.1463,-0.1397,-0.14,-0.1333,-0.1313,-0.1288,-0.1297,-0.1266,-0.1266,-0.1387,-0.1431,-0.1201,-0.1144,-0.1037,-0.1124,-0.0981,-0.1429,-0.1406,-0.1432,-0.1503,-0.1465,0,0,0,0,0]},{"header":{"parameterUnit":"m.s-1","parameterCategory":2,"la1":30.2991,"la2":30.254,"lo1":-89.0895,"lo2":-89.0444,"dy":0.0017,"dx":0.0017,"nx":28,"ny":28,"refTime":"2024-10-07T09:00:00:Z","depth":"2","parameterNumber":3,"parameterNumberName":"V-component_of_CURRENTS"},"data":[0,0,0,0,0,0,0,0,0,0,0,0,0,0,0,0,0,0,0,0,0,0,0,0,0,0,0,0,0,0,0,0,0,0,0,0,0,0,0,0,0,0,0,0,0,0,0,0,0,0,0,0,0,0,0,0,0,0,-0.0144,-0.0143,0,-0.0071,-0.007,-0.0069,-0.0035,-0.0036,-0.0036,-0.0036,0.0036,0.0038,0.004,0,0,0,0,0,0,0,0,0,0,0,0,0,-0.0183,-0.0183,-0.0144,-0.0143,-0.0142,-0.0071,-0.007,-0.0069,-0.0035,-0.0036,-0.0036,-0.0036,0.0036,0.0038,0.0041,0,0,0,0,0,0,0,0,0,0,0,0,0,-0.0144,-0.0183,-0.0144,-0.0117,-0.0114,-0.0071,-0.007,-0.0069,-0.0035,-0.0036,-0.0036,-0.0036,0.0035,0.0038,0.0041,0.0063,0,0,0.005,0.0051,0,0,0,0,0,0,0,0,-0.0146,-0.0142,-0.0122,-0.0119,-0.0116,-0.0063,-0.0057,-0.0025,-0.0035,-0.0065,-0.0036,-0.0036,0.0003,0.0009,0.0023,0.0066,0.0069,0.005,0.0052,0.0054,0.0054,0,0,0,0,0,0,0,-0.0149,-0.0145,-0.0115,-0.0121,-0.0117,-0.0085,-0.008,-0.0051,-0.0031,-0.0062,-0.006,-0.0052,0.0005,0.002,0.0025,0.007,0.005,0.0053,0.0055,0.0056,0.0142,0.0142,0,0,0,0,0,0,-0.0163,-0.0148,-0.0117,-0.0113,-0.0132,-0.0084,-0.0079,-0.0079,-0.0031,-0.0024,-0.0052,-0.0051,0.0015,0.0022,0.0028,0.0048,0.0054,0.0056,0.0058,0.0141,0.0142,0.0142,0,0,0,0,0,0,-0.0164,-0.0161,-0.012,-0.0128,-0.0121,-0.0084,-0.0084,-0.0078,-0.0065,-0.0023,-0.0016,-0.0047,0.0015,0.0024,0.0054,0.0051,0.0058,0.0061,0.0141,0.0142,0.0142,0.0094,0,0,0,0,0,0,-0.0165,-0.0162,-0.0169,-0.013,-0.0121,-0.0104,-0.0084,-0.0076,-0.006,-0.0058,-0.0016,-0.0009,0.0016,0.0049,0.0057,0.0056,0.0063,0.014,0.0141,0.0142,0.0095,0.0093,0.0091,0,0,0,0,0,-0.0167,-0.0176,-0.017,-0.0166,-0.0132,-0.0105,-0.0097,-0.007,-0.006,-0.0058,-0.0024,-0.0011,0.006,0.0052,0.0061,0.006,0.014,0.0141,0.0142,0.0096,0.0093,0.0091,0,0,0,0,0,0,-0.0196,-0.0172,-0.0165,-0.0167,-0.0143,-0.0099,-0.0095,-0.0074,-0.0045,-0.0045,-0.0004,0.0006,0.0031,0.0056,0.0046,0.009,0.0102,0.0105,0.0064,0.0062,0.006,0.0048,0.0065,0,0,0,0,0,-0.0207,-0.021,-0.0178,-0.0181,-0.0171,-0.0134,-0.012,-0.0103,-0.007,-0.0058,-0.0026,0.001,0.0044,0.006,0.0091,0.0114,0.0144,0.0121,0.0119,0.0117,0.0115,0.0162,0.0164,0.0146,0.0146,0.0146,0,0,-0.0218,-0.0207,-0.0208,-0.0188,-0.0167,-0.0159,-0.0126,-0.0111,-0.0102,-0.0054,-0.0033,0.0003,0.005,0.0076,0.0089,0.0094,0.0138,0.0119,0.0116,0.0115,0.0164,0.0165,0.0167,0.0147,0.0146,0.0146,0,0,-0.0243,-0.0233,-0.0244,-0.0229,-0.0206,-0.0181,-0.018,-0.014,-0.0121,-0.0094,-0.0056,-0.002,0.0027,0.0062,0.0086,0.0094,0.0127,0.0103,0.0082,0.0128,0.013,0.0132,0.0167,0.0173,0.0102,0.0102,0.0102,0,-0.026,-0.0271,-0.0242,-0.0246,-0.0241,-0.0195,-0.0204,-0.0171,-0.0127,-0.0109,-0.0097,-0.0012,0.0022,0.0066,0.0068,0.0088,0.0117,0.0083,0.0124,0.0127,0.0129,0.0166,0.0172,0.0099,0.01,0.01,0.01,0,-0.0289,-0.03,-0.0304,-0.0299,-0.0285,-0.0286,-0.0243,-0.0222,-0.0192,-0.0156,-0.0108,-0.0051,-0.0002,0.0017,0.0044,0.0082,0.0097,0.0115,0.0125,0.0128,0.0166,0.0174,0.0096,0.0097,0.0098,0.0098,0,0,-0.0323,-0.0328,-0.033,-0.0345,-0.0318,-0.0312,-0.029,-0.0256,-0.0239,-0.0185,-0.0157,-0.0089,-0.0052,-0.0021,0.0024,0.0065,0.0106,0.0092,0.0095,0.0117,0.0202,0.0234,0.0246,0.013,0.0131,0.0132,0.0219,0,-0.036,-0.0399,-0.0378,-0.0406,-0.0424,-0.0377,-0.036,-0.032,-0.0271,-0.0229,-0.0154,-0.0111,-0.0067,-0.0045,0.0006,0.0084,0.0125,0.008,0.0205,0.0209,0.0229,0.0256,0.0223,0.0301,0.0227,0.0228,0.0229,0,-0.0393,-0.0422,-0.0466,-0.0476,-0.0476,-0.0476,-0.0445,-0.0421,-0.0339,-0.03,-0.0232,-0.0169,-0.0091,-0.0061,0.0076,0.0046,0.0116,0.0176,0.0182,0.0233,0.0255,0.0289,0.0318,0.0243,0.0242,0.0241,0.024,0,-0.0448,-0.0477,-0.0522,-0.0527,-0.0525,-0.0527,-0.0513,-0.0448,-0.0424,-0.0343,-0.0314,-0.0207,-0.0155,-0.0047,0.0086,0.008,0.0235,0.0243,0.0339,0.0341,0.0351,0.0352,0.0332,0.0332,0.0332,0.0332,0.0332,0,-0.0497,-0.053,-0.0556,-0.0584,-0.0625,-0.0592,-0.0598,-0.056,-0.0496,-0.0464,-0.0358,-0.0308,-0.0149,-0.0035,0.0078,0.024,0.0234,0.0343,0.0372,0.0333,0.0332,0.031,0.0306,0.0335,0.0334,0.0334,0.0333,0,-0.0545,-0.056,-0.062,-0.0648,-0.0657,-0.0686,-0.067,-0.066,-0.059,-0.0544,-0.0522,-0.0379,-0.0225,-0.0058,0.0124,0.0229,0.0375,0.0429,0.037,0.0391,0.0449,0.0442,0.0544,0.0546,0.0547,0.0549,0.055,0,-0.0574,-0.0613,-0.0683,-0.0721,-0.0738,-0.0767,-0.0775,-0.072,-0.0698,-0.0582,-0.0562,-0.0408,-0.0281,0.0005,0.0211,0.0426,0.0422,0.0513,0.0501,0.0456,0.0474,0.0464,0.0455,0.0491,0.0491,0.0492,0.0492,0,-0.0636,-0.0661,-0.0714,-0.0802,-0.0839,-0.0865,-0.0869,-0.0864,-0.0777,-0.0721,-0.0614,-0.0506,-0.0219,0.002,0.0304,0.0422,0.0479,0.0531,0.0513,0.0442,0.0413,0.0428,0.0419,0.0496,0.0496,0.0496,0.0495,0.0495,-0.0678,-0.0735,-0.0807,-0.088,-0.0923,-0.0945,-0.0952,-0.0926,-0.0886,-0.0771,-0.0667,-0.0481,-0.0239,0.0164,0.0361,0.0545,0.0547,0.0589,0.0584,0.0579,0.0557,0.0534,0.0635,0.0635,0.0635,0.0636,0.0636,0,-0.0732,-0.0791,-0.0873,-0.0951,-0.0992,-0.0998,-0.0994,-0.0968,-0.0917,-0.0795,-0.067,-0.04,-0.0117,0.0134,0.0433,0.0612,0.0588,0.063,0.0563,0.0558,0.0554,0.0528,0.0599,0.0599,0.06,0.06,0,0,-0.0761,-0.0856,-0.0901,-0.099,-0.1028,-0.1048,-0.1038,-0.0989,-0.09,-0.0776,-0.0632,-0.0428,-0.0113,0.0086,0.0312,0.0464,0.0459,0.0472,0.0485,0.0374,0.0367,0.0517,0.047,0,0,0,0,0]}],[{"header":{"parameterUnit":"m.s-1","parameterCategory":2,"la1":30.2991,"la2":30.254,"lo1":-89.0895,"lo2":-89.0444,"dy":0.0017,"dx":0.0017,"nx":28,"ny":28,"refTime":"2024-10-07T09:00:00:Z","depth":"4","parameterNumber":2,"parameterNumberName":"U-component_of_CURRENTS"},"data":[0,0,0,0,0,0,0,0,0,0,0,0,0,0,0,0,0,0,0,0,0,0,0,0,0,0,0,0,0,0,0,0,0,0,0,0,0,0,0,0,0,0,0,0,0,0,0,0,0,0,0,0,0,0,0,0,0,0,-0.1208,-0.1208,0,-0.1239,-0.1239,-0.124,-0.1272,-0.1273,-0.1274,-0.1274,-0.1348,-0.1349,-0.135,0,0,0,0,0,0,0,0,0,0,0,0,0,-0.1161,-0.1162,-0.1207,-0.1208,-0.1209,-0.1239,-0.1239,-0.124,-0.1272,-0.1273,-0.1274,-0.1275,-0.1347,-0.1349,-0.135,0,0,0,0,0,0,0,0,0,0,0,0,0,-0.1183,-0.1162,-0.1207,-0.1231,-0.1234,-0.1239,-0.1239,-0.124,-0.1272,-0.1273,-0.1274,-0.1275,-0.1347,-0.1349,-0.1351,-0.1341,0,0,-0.1357,-0.1357,0,0,0,0,0,0,0,0,-0.1182,-0.1184,-0.1227,-0.1229,-0.1232,-0.1255,-0.125,-0.1277,-0.1272,-0.1254,-0.1274,-0.1276,-0.1322,-0.1326,-0.1325,-0.1344,-0.1348,-0.1357,-0.1358,-0.1359,-0.1359,0,0,0,0,0,0,0,-0.118,-0.1183,-0.1217,-0.1227,-0.1231,-0.1235,-0.1239,-0.1255,-0.128,-0.1256,-0.1259,-0.1267,-0.1323,-0.1323,-0.1327,-0.1349,-0.1357,-0.1358,-0.136,-0.136,-0.1423,-0.1424,0,0,0,0,0,0,-0.1182,-0.1182,-0.1216,-0.1218,-0.1212,-0.1235,-0.124,-0.1245,-0.1279,-0.1286,-0.1266,-0.1268,-0.1319,-0.1325,-0.133,-0.1394,-0.1359,-0.136,-0.1362,-0.1423,-0.1423,-0.1424,0,0,0,0,0,0,-0.118,-0.1184,-0.1215,-0.1203,-0.1208,-0.1236,-0.124,-0.1245,-0.1266,-0.1287,-0.1294,-0.1286,-0.132,-0.1327,-0.1359,-0.1394,-0.1361,-0.1363,-0.1422,-0.1423,-0.1424,-0.1475,0,0,0,0,0,0,-0.1179,-0.1183,-0.1192,-0.1203,-0.1209,-0.1229,-0.124,-0.1245,-0.1269,-0.1273,-0.1306,-0.1312,-0.1321,-0.1356,-0.1361,-0.1396,-0.1365,-0.1421,-0.1422,-0.1423,-0.1473,-0.1478,-0.1482,0,0,0,0,0,-0.1177,-0.1183,-0.1192,-0.1197,-0.1218,-0.123,-0.1232,-0.1254,-0.1269,-0.1277,-0.1301,-0.1313,-0.1365,-0.1357,-0.1363,-0.1401,-0.1421,-0.1422,-0.1423,-0.1471,-0.1477,-0.1482,0,0,0,0,0,0,-0.1167,-0.1187,-0.1198,-0.121,-0.1225,-0.1237,-0.125,-0.1263,-0.1286,-0.1299,-0.1317,-0.1325,-0.1366,-0.1368,-0.1359,-0.1418,-0.1396,-0.1398,-0.143,-0.1436,-0.144,-0.1443,-0.1366,0,0,0,0,0,-0.1168,-0.118,-0.1197,-0.1209,-0.1219,-0.1237,-0.1248,-0.1263,-0.1283,-0.1295,-0.1322,-0.1347,-0.137,-0.1391,-0.1406,-0.1439,-0.144,-0.1465,-0.1469,-0.1473,-0.1478,-0.1509,-0.1518,-0.1428,-0.1428,-0.1428,0,0,-0.1172,-0.1182,-0.1192,-0.1208,-0.1223,-0.1242,-0.1247,-0.1269,-0.1296,-0.1299,-0.135,-0.1364,-0.1379,-0.1417,-0.1436,-0.1429,-0.1497,-0.1475,-0.1478,-0.148,-0.1511,-0.152,-0.1528,-0.1428,-0.1428,-0.1428,0,0,-0.1176,-0.1191,-0.1202,-0.1217,-0.1242,-0.1254,-0.1266,-0.1292,-0.1318,-0.1353,-0.1369,-0.1402,-0.1436,-0.146,-0.1474,-0.1509,-0.1516,-0.1517,-0.1553,-0.1585,-0.1593,-0.16,-0.1606,-0.1613,-0.1526,-0.1526,-0.1526,0,-0.1183,-0.1194,-0.1207,-0.1222,-0.1243,-0.1264,-0.1286,-0.131,-0.1348,-0.1377,-0.1377,-0.1442,-0.1458,-0.1511,-0.1524,-0.1524,-0.1531,-0.1536,-0.1592,-0.1599,-0.1606,-0.1611,-0.1618,-0.1528,-0.1528,-0.1528,-0.1528,0,-0.1187,-0.121,-0.1219,-0.1248,-0.1269,-0.129,-0.1327,-0.1363,-0.1396,-0.1423,-0.1484,-0.15,-0.1541,-0.1553,-0.1552,-0.1611,-0.1597,-0.1592,-0.1582,-0.1618,-0.162,-0.1627,-0.1532,-0.1531,-0.153,-0.153,0,0,-0.1181,-0.1216,-0.1224,-0.1248,-0.1287,-0.1306,-0.136,-0.1411,-0.1465,-0.1498,-0.1563,-0.1595,-0.1611,-0.1625,-0.1636,-0.1664,-0.1713,-0.1652,-0.1652,-0.1664,-0.1769,-0.1642,-0.1637,-0.1723,-0.1725,-0.1726,-0.1751,0,-0.1187,-0.121,-0.1236,-0.1283,-0.1301,-0.135,-0.1403,-0.1457,-0.1507,-0.1577,-0.1607,-0.1665,-0.1638,-0.1671,-0.1693,-0.1712,-0.1734,-0.1705,-0.1727,-0.1727,-0.1616,-0.1642,-0.1731,-0.1756,-0.1757,-0.1758,-0.1759,0,-0.1182,-0.1201,-0.1233,-0.1307,-0.1325,-0.1365,-0.1459,-0.1511,-0.1605,-0.165,-0.1704,-0.1731,-0.1782,-0.1755,-0.1794,-0.1779,-0.1778,-0.1781,-0.1782,-0.165,-0.1612,-0.1713,-0.1771,-0.177,-0.1769,-0.1769,-0.1768,0,-0.1147,-0.1208,-0.1233,-0.1254,-0.1333,-0.1381,-0.1438,-0.1533,-0.1595,-0.1703,-0.1753,-0.1809,-0.1844,-0.1857,-0.1844,-0.1836,-0.1874,-0.1866,-0.1747,-0.1737,-0.1824,-0.1816,-0.1896,-0.1896,-0.1896,-0.1896,-0.1896,0,-0.1125,-0.1157,-0.1225,-0.1238,-0.1304,-0.1373,-0.1464,-0.1534,-0.1647,-0.1712,-0.1786,-0.1825,-0.1873,-0.1891,-0.1876,-0.1815,-0.1897,-0.1752,-0.1738,-0.1842,-0.1836,-0.1828,-0.182,-0.1897,-0.1896,-0.1896,-0.1896,0,-0.1071,-0.1114,-0.1151,-0.1241,-0.128,-0.1327,-0.1465,-0.1532,-0.1643,-0.173,-0.1766,-0.1855,-0.1867,-0.1887,-0.1909,-0.1838,-0.1813,-0.1774,-0.1874,-0.1865,-0.165,-0.1644,-0.1651,-0.1646,-0.1643,-0.164,-0.1637,0,-0.1031,-0.104,-0.1131,-0.1165,-0.1209,-0.13,-0.1368,-0.1508,-0.1573,-0.1716,-0.174,-0.1808,-0.184,-0.1761,-0.1795,-0.1761,-0.1735,-0.1712,-0.1684,-0.164,-0.1627,-0.1627,-0.1626,-0.1632,-0.1631,-0.163,-0.1629,0,-0.0954,-0.0995,-0.1028,-0.1091,-0.1162,-0.1245,-0.1348,-0.1388,-0.1537,-0.1649,-0.167,-0.1676,-0.1686,-0.1677,-0.1659,-0.1633,-0.1723,-0.1674,-0.1681,-0.1655,-0.1617,-0.1608,-0.1611,-0.1616,-0.1618,-0.1619,-0.162,0,-0.0894,-0.0906,-0.0954,-0.1011,-0.1099,-0.1163,-0.1232,-0.1304,-0.1385,-0.1539,-0.1531,-0.1594,-0.1666,-0.161,-0.1592,-0.1557,-0.1533,-0.1479,-0.1496,-0.1511,-0.145,-0.138,-0.1295,0,0,0,0,0,-0.082,-0.0839,-0.0877,-0.094,-0.1027,-0.1081,-0.121,-0.1283,-0.1417,-0.1393,-0.1464,-0.1463,-0.1445,-0.1476,-0.1407,-0.1526,-0.1538,-0.144,-0.1486,-0.1548,-0.1562,-0.1501,0,0,0,0,0,0,-0.0775,-0.0807,-0.0839,-0.0871,-0.0905,-0.0998,-0.1075,-0.1165,-0.1163,-0.1287,-0.1281,-0.1365,-0.1365,-0.1454,-0.1372,-0.1381,-0.1378,-0.1483,-0.1479,-0.1539,-0.1552,-0.1564,-0.1506,0,0,0,0,0]},{"header":{"parameterUnit":"m.s-1","parameterCategory":2,"la1":30.2991,"la2":30.254,"lo1":-89.0895,"lo2":-89.0444,"dy":0.0017,"dx":0.0017,"nx":28,"ny":28,"refTime":"2024-10-07T09:00:00:Z","depth":"4","parameterNumber":3,"parameterNumberName":"V-component_of_CURRENTS"},"data":[0,0,0,0,0,0,0,0,0,0,0,0,0,0,0,0,0,0,0,0,0,0,0,0,0,0,0,0,0,0,0,0,0,0,0,0,0,0,0,0,0,0,0,0,0,0,0,0,0,0,0,0,0,0,0,0,0,0,-0.0047,-0.0047,0,-0.0008,-0.0007,-0.0007,0.0015,0.0015,0.0015,0.0015,0.0062,0.0063,0.0065,0,0,0,0,0,0,0,0,0,0,0,0,0,-0.0069,-0.0069,-0.0047,-0.0047,-0.0047,-0.0008,-0.0007,-0.0007,0.0015,0.0015,0.0015,0.0015,0.0062,0.0063,0.0065,0,0,0,0,0,0,0,0,0,0,0,0,0,-0.0047,-0.0069,-0.0047,-0.0032,-0.003,-0.0008,-0.0007,-0.0007,0.0015,0.0015,0.0015,0.0015,0.0061,0.0063,0.0065,0.0078,0,0,0.0071,0.0072,0,0,0,0,0,0,0,0,-0.0048,-0.0046,-0.0035,-0.0033,-0.0031,-0.0002,0.0002,0.0022,0.0016,-0.0,0.0015,0.0015,0.004,0.0044,0.0053,0.008,0.0082,0.0071,0.0072,0.0073,0.0074,0,0,0,0,0,0,0,-0.005,-0.0047,-0.003,-0.0034,-0.0032,-0.0015,-0.0012,0.0006,0.0021,0.0001,0.0002,0.0005,0.0042,0.0051,0.0055,0.0083,0.0071,0.0073,0.0074,0.0075,0.0128,0.0128,0,0,0,0,0,0,-0.0059,-0.0049,-0.0032,-0.0029,-0.0041,-0.0015,-0.0012,-0.001,0.0021,0.0025,0.0005,0.0006,0.0048,0.0052,0.0056,0.0071,0.0073,0.0075,0.0076,0.0128,0.0128,0.0128,0,0,0,0,0,0,-0.0059,-0.0058,-0.0033,-0.0039,-0.0035,-0.0015,-0.0014,-0.001,-0.0001,0.0023,0.0028,0.0009,0.0048,0.0054,0.0073,0.0073,0.0076,0.0077,0.0127,0.0128,0.0128,0.0101,0,0,0,0,0,0,-0.006,-0.0058,-0.006,-0.004,-0.0035,-0.0024,-0.0013,-0.0009,0.0,0.0002,0.0029,0.0033,0.0049,0.007,0.0075,0.0075,0.0079,0.0127,0.0128,0.0128,0.0102,0.0101,0.01,0,0,0,0,0,-0.0061,-0.0064,-0.006,-0.0058,-0.0038,-0.0024,-0.002,-0.0005,0.0001,0.0003,0.0023,0.0032,0.0077,0.0072,0.0078,0.0078,0.0127,0.0127,0.0128,0.0102,0.0101,0.01,0,0,0,0,0,0,-0.0074,-0.0062,-0.0057,-0.0056,-0.0043,-0.0021,-0.0018,-0.0007,0.0012,0.0013,0.0037,0.0042,0.0058,0.0074,0.0069,0.0096,0.0103,0.0105,0.0082,0.0081,0.0079,0.0067,0.0081,0,0,0,0,0,-0.0078,-0.0079,-0.0062,-0.0062,-0.0057,-0.0038,-0.003,-0.002,-0.0002,0.0006,0.0026,0.0047,0.0066,0.0077,0.0095,0.0112,0.0134,0.0117,0.0115,0.0114,0.0109,0.0148,0.015,0.013,0.013,0.013,0,0,-0.0084,-0.0077,-0.0078,-0.0065,-0.0054,-0.0053,-0.0033,-0.0025,-0.0023,0.0008,0.0019,0.0043,0.0069,0.0086,0.0095,0.0099,0.0133,0.0115,0.0114,0.0109,0.0149,0.0151,0.0153,0.0131,0.013,0.013,0,0,-0.0098,-0.0089,-0.0095,-0.0089,-0.0076,-0.0064,-0.0063,-0.0042,-0.0031,-0.0016,0.0006,0.0031,0.0058,0.008,0.0093,0.0099,0.0124,0.0105,0.0091,0.0129,0.0131,0.0133,0.0165,0.017,0.0106,0.0106,0.0106,0,-0.0108,-0.0113,-0.0094,-0.0099,-0.0101,-0.0072,-0.0082,-0.0064,-0.0038,-0.0029,-0.0019,0.0032,0.0054,0.0079,0.0081,0.0095,0.012,0.0092,0.0128,0.013,0.0132,0.0164,0.017,0.0105,0.0105,0.0105,0.0105,0,-0.0126,-0.0132,-0.0135,-0.0135,-0.0131,-0.0134,-0.0113,-0.0101,-0.0084,-0.0063,-0.0034,0.0006,0.0035,0.005,0.0066,0.0094,0.0108,0.012,0.0128,0.0133,0.0166,0.0173,0.0103,0.0103,0.0104,0.0104,0,0,-0.015,-0.015,-0.0153,-0.0167,-0.0154,-0.0157,-0.0148,-0.0134,-0.0131,-0.009,-0.0079,-0.0032,-0.0003,0.0015,0.0048,0.0083,0.0123,0.0106,0.0108,0.0132,0.0206,0.0195,0.0201,0.0144,0.0145,0.0146,0.0223,0,-0.0175,-0.0198,-0.0188,-0.0216,-0.023,-0.0208,-0.0206,-0.0187,-0.0158,-0.0136,-0.008,-0.0056,-0.0017,-0.0003,0.0041,0.0102,0.0139,0.0101,0.0203,0.0206,0.0191,0.0208,0.0149,0.0228,0.023,0.0231,0.0232,0,-0.0201,-0.0216,-0.0245,-0.0268,-0.0272,-0.0282,-0.028,-0.0273,-0.0225,-0.0201,-0.0152,-0.0105,-0.0044,-0.0017,0.0098,0.0074,0.0133,0.0183,0.0188,0.0189,0.0206,0.0224,0.0244,0.0243,0.0242,0.0241,0.024,0,-0.0234,-0.0261,-0.0289,-0.0296,-0.0307,-0.0321,-0.0325,-0.0294,-0.0291,-0.0239,-0.0224,-0.0138,-0.0098,-0.0005,0.0106,0.0103,0.0231,0.0241,0.0288,0.0288,0.0286,0.0284,0.0315,0.0315,0.0315,0.0314,0.0314,0,-0.0264,-0.0292,-0.0312,-0.0329,-0.0377,-0.0366,-0.0394,-0.0378,-0.0351,-0.0341,-0.026,-0.0228,-0.0093,-0.0,0.0098,0.0216,0.023,0.0287,0.0309,0.0274,0.0269,0.0291,0.0288,0.0317,0.0317,0.0316,0.0316,0,-0.029,-0.0298,-0.0342,-0.0373,-0.0392,-0.0424,-0.0455,-0.0466,-0.0428,-0.0411,-0.0397,-0.0291,-0.0165,-0.0028,0.0126,0.0198,0.0313,0.0349,0.03,0.0317,0.0346,0.034,0.0407,0.0407,0.0408,0.0408,0.0408,0,-0.0297,-0.0319,-0.0381,-0.0421,-0.0441,-0.0488,-0.0519,-0.0509,-0.0511,-0.0444,-0.0435,-0.0318,-0.0231,-0.0017,0.0122,0.0309,0.033,0.0383,0.0366,0.0342,0.0357,0.035,0.0344,0.0408,0.0408,0.0408,0.0408,0,-0.0316,-0.0339,-0.0378,-0.0461,-0.0514,-0.0572,-0.0607,-0.0614,-0.058,-0.0551,-0.0456,-0.0332,-0.0193,-0.0022,0.0123,0.0256,0.0346,0.0386,0.0386,0.037,0.0344,0.0357,0.0351,0.0409,0.0409,0.0409,0.0409,0,-0.0324,-0.0368,-0.0423,-0.0501,-0.0573,-0.063,-0.0646,-0.0637,-0.063,-0.0541,-0.051,-0.0343,-0.0243,-0.0049,0.0087,0.0216,0.0242,0.0272,0.0279,0.028,0.0218,0.0164,0.0194,0,0,0,0,0,-0.0324,-0.0386,-0.0462,-0.0547,-0.0619,-0.0659,-0.0694,-0.0691,-0.0655,-0.0595,-0.0548,-0.041,-0.0192,-0.0095,0.0031,0.0077,0.0252,0.0227,0.0286,0.0414,0.0413,0.036,0,0,0,0,0,0,-0.0326,-0.04,-0.0462,-0.0569,-0.063,-0.0703,-0.0725,-0.0701,-0.0657,-0.0597,-0.048,-0.0396,-0.0186,-0.0264,0.0029,0.0069,0.0119,0.0336,0.0339,0.0414,0.0413,0.0413,0.0359,0,0,0,0,0]}]]